Location: Newark
(54.4333°N, 18.5500°E)
Time: 01:18:55
(UTC+00:00)

Envisat - Visible Passes

Search period start: 18 January 2021 00:00
Search period end: 28 January 2021 00:00
Orbit: 764 x 766 km, 98.1° (Epoch: 17 January)

Date Brightness Start Highest point End Pass type
(mag) Time Alt. Az. Time Alt. Az. Time Alt. Az.
18 Jan 4.8 03:54:10 10° NNE 03:58:44 32° E 04:03:15 10° SSE visible
18 Jan 3.2 05:33:04 10° N 05:37:58 49° WNW 05:42:51 10° SW visible
18 Jan 5.8 16:56:23 10° SW 17:00:01 20° W 17:03:42 10° NW visible
19 Jan 5.7 03:18:08 10° NE 03:21:29 17° E 03:24:49 10° SE visible
19 Jan 3.0 04:56:07 10° NNE 05:01:14 89° WNW 05:06:20 10° SSW visible
19 Jan 4.8 16:18:10 10° SSW 16:22:49 36° W 16:27:31 10° NNW visible
20 Jan 3.9 04:19:21 10° NNE 04:24:19 49° E 04:29:15 10° S visible
20 Jan 3.6 05:58:41 10° N 06:03:13 33° WNW 06:07:43 10° WSW visible
20 Jan 3.5 15:40:45 10° S 15:45:48 68° WSW 15:50:55 10° NNW visible
20 Jan 6.2 17:23:44 10° WSW 17:25:50 12° W 17:27:56 10° WNW visible
21 Jan 5.1 03:42:55 10° NE 03:47:13 27° E 03:51:29 10° SSE visible
21 Jan 3.0 05:21:35 10° N 05:26:36 59° WNW 05:31:35 10° SW visible
21 Jan 5.6 16:44:26 10° SW 16:48:29 23° W 16:52:33 10° NW visible
22 Jan 6.0 03:07:11 10° NE 03:09:54 14° E 03:12:37 10° ESE visible
22 Jan 3.1 04:44:41 10° NNE 04:49:49 77° ESE 04:54:54 10° S visible
22 Jan 4.4 16:06:30 10° S 16:11:20 43° W 16:16:12 10° NNW visible
23 Jan 4.3 04:08:01 10° NNE 04:12:50 41° E 04:17:38 10° SSE visible
23 Jan 3.4 05:47:10 10° N 05:51:53 39° WNW 05:56:34 10° SW visible
23 Jan 6.0 17:11:19 10° WSW 17:14:14 15° W 17:17:11 10° NW visible
24 Jan 5.4 03:31:43 10° NE 03:35:41 22° E 03:39:36 10° SE visible
24 Jan 2.9 05:10:08 10° NNE 05:15:13 70° WNW 05:20:16 10° SSW visible
24 Jan 5.3 16:32:35 10° SSW 16:36:57 28° W 16:41:20 10° NNW visible
25 Jan 6.2 02:56:32 10° ENE 02:58:18 12° E 03:00:04 10° ESE visible
25 Jan 3.4 04:33:17 10° NNE 04:38:23 64° ESE 04:43:25 10° S visible
25 Jan 4.0 15:54:54 10° S 15:59:52 52° W 16:04:51 10° NNW visible
26 Jan 4.7 03:56:42 10° NNE 04:01:21 34° E 04:05:57 10° SSE visible
26 Jan 3.3 05:35:40 10° N 05:40:32 46° WNW 05:45:22 10° SW visible
26 Jan 5.9 16:59:11 10° SW 17:02:40 18° W 17:06:10 10° NW visible
27 Jan 5.7 03:20:35 10° NE 03:24:08 19° E 03:27:38 10° SE visible
27 Jan 2.9 04:58:42 10° NNE 05:03:49 84° WNW 05:08:54 10° SSW visible
27 Jan 4.9 16:20:50 10° SSW 16:25:26 34° W 16:30:04 10° NNW visible
